Location: Elmsmere
(40.9284°N, 73.8207°W)
Time: 05:20:58
(UTC+00:00)

Aureole 3 - Pass Details

Date: 29 October 2020
Orbit: 382 x 1232 km, 82.5° (Epoch: 27 November)

Event Time Altitude Azimuth Distance (km) Brightness Sun altitude
Rises 22:31:18 0° 179° (S) 2,422 6.8 -7.6°
Reaches altitude 10° 22:33:27 10° 175° (S) 1,487 5.6 -8.0°
Maximum altitude 22:36:31 56° 96° (E) 470 2.7 -8.6°
Drops below altitude 10° 22:39:27 10° 16° (NNE) 1,412 5.2 -9.1°
Sets 22:41:26 0° 12° (NNE) 2,281 6.3 -9.5°
